Retour au catalogue

COSMOS 807

ActifMilitairePO
NORAD 8744·PAYLOAD·🇷🇺 Russia

Lancé Mar 12, 1976 depuis Plesetsk Cosmodrome

Loading…

Prochains Passages (prochaines 24 heures)

TLE

FraisSource: Space-Track

Époque: Sep 14, 2026, 13:41 UTC

1 08744U 76022A   26257.57022081  .00007227  00000-0  29086-3 0  9993
2 08744  82.9115 242.3465 0451086 323.6230 166.5260 14.63793715562690

Suivez COSMOS 807 en temps réel avec AllMySat

Download on the App Store